GW0020 Weather Reports


Display with metric or nautical units.
time (UTC)temp
F
wind
direction
speed
MPH
gust
MPH
rain 1hr
in
rain 24hr
in
rain mn
in
humidity
%
barometer
mb
20260906233058 92 0 0.0 3.0 0.00 0.00 0.00 56 1012.2
20260906231609 92 203 1.0 3.0 0.00 0.00 0.00 55 1012.3
20260906230057 92 0 0.0 2.0 0.00 0.00 0.00 54 1012.4
20260906224601 92 172 0.0 2.0 0.00 0.00 0.00 53 1012.4
20260906223100 93 187 0.0 3.0 0.00 0.00 0.00 52 1012.5
20260906221648 95 167 0.0 1.0 0.00 0.00 0.00 48 1012.6
20260906220056 97 0 0.0 2.0 0.00 0.00 0.00 47 1012.7
20260906214605 97 129 0.0 2.0 0.00 0.00 0.00 47 1012.6
20260906213106 97 136 0.0 1.0 0.00 0.00 0.00 47 1012.9
20260906211600 98 155 0.0 3.0 0.00 0.00 0.00 45 1013.0
20260906210115 101 144 1.0 3.0 0.00 0.00 0.00 43 1013.2
20260906204615 101 220 1.0 4.0 0.00 0.00 0.00 43 1013.4
20260906203101 101 174 0.0 3.0 0.00 0.00 0.00 45 1013.6
20260906201557 100 231 1.0 3.0 0.00 0.00 0.00 45 1013.7
20260906200056 97 210 1.0 4.0 0.00 0.00 0.00 48 1013.9
20260906194551 93 24 2.0 4.0 0.00 0.00 0.00 54 1014.0
20260906193059 94 226 0.0 2.0 0.00 0.00 0.00 51 1014.2
20260906191558 95 0 0.0 3.0 0.00 0.00 0.00 52 1014.2
20260906190058 95 23 0.0 2.0 0.00 0.00 0.00 52 1014.6
20260906184610 93 0 0.0 4.0 0.00 0.00 0.00 52 1014.6
20260906183103 93 0 0.0 2.0 0.00 0.00 0.00 53 1014.9
20260906181601 93 132 0.0 3.0 0.00 0.00 0.00 56 1014.9
20260906180055 92 137 0.0 2.0 0.00 0.00 0.00 54 1015.4
20260906174717 91 0 1.0 3.0 0.00 0.00 0.00 57 1015.6
20260906173106 90 0 0.0 1.0 0.00 0.00 0.00 60 1015.9
20260906171559 87 0 0.0 1.0 0.00 0.00 0.00 65 1016.4
20260906170106 86 158 0.0 2.0 0.00 0.00 0.00 67 1016.5
20260906164555 86 148 0.0 3.0 0.00 0.00 0.00 68 1016.7
20260906163101 86 0 0.0 2.0 0.00 0.00 0.00 68 1016.6
20260906161554 86 142 0.0 1.0 0.00 0.00 0.00 67 1016.6
20260906160110 86 0 0.0 0.0 0.00 0.00 0.00 66 1016.5
20260906154603 86 0 0.0 1.0 0.00 0.00 0.00 67 1016.3
20260906153100 86 137 0.0 2.0 0.00 0.00 0.00 68 1016.1
20260906151603 85 0 0.0 1.0 0.00 0.00 0.00 70 1015.9
20260906150052 84 158 0.0 0.0 0.00 0.00 0.00 72 1015.9
20260906144621 83 0 0.0 0.0 0.00 0.00 0.00 73 1015.8
20260906143113 82 0 0.0 0.0 0.00 0.00 0.00 76 1015.6
20260906141557 81 0 0.0 0.0 0.00 0.00 0.00 78 1015.7
20260906140054 80 0 0.0 0.0 0.00 0.00 0.00 79 1015.7
20260906134600 80 0 0.0 0.0 0.00 0.00 0.00 79 1015.5
20260906133105 79 0 0.0 1.0 0.00 0.00 0.00 80 1015.4
20260906131600 79 0 0.0 0.0 0.00 0.00 0.00 80 1015.2
20260906130054 78 0 0.0 0.0 0.00 0.00 0.00 81 1015.1
20260906124604 77 0 0.0 0.0 0.00 0.00 0.00 81 1015.0
20260906123103 77 0 0.0 0.0 0.00 0.00 0.00 81 1014.5
20260906121555 76 0 0.0 0.0 0.00 0.00 0.00 81 1014.4
20260906120052 77 0 0.0 0.0 0.00 0.00 0.00 81 1014.1
20260906114551 77 0 0.0 0.0 0.00 0.00 0.00 81 1013.8
20260906113058 76 0 0.0 0.0 0.00 0.00 0.00 82 1013.6
20260906111555 76 0 0.0 0.0 0.00 0.00 0.00 81 1013.6
20260906110053 77 0 0.0 0.0 0.00 0.00 0.00 80 1013.5
20260906104559 77 0 0.0 0.0 0.00 0.00 0.00 79 1013.6
20260906103059 78 0 0.0 0.0 0.00 0.00 0.00 79 1013.5
20260906101554 78 0 0.0 0.0 0.00 0.00 0.00 79 1013.3
20260906100105 78 0 0.0 0.0 0.00 0.00 0.00 77 1013.2
20260906094557 79 0 0.0 0.0 0.00 0.00 0.00 77 1013.2
20260906093115 79 0 0.0 1.0 0.00 0.00 0.00 76 1013.2
20260906091557 80 236 0.0 1.0 0.00 0.00 0.00 75 1013.2
20260906090133 80 0 0.0 1.0 0.00 0.00 0.00 75 1013.2
20260906084558 81 0 0.0 1.0 0.00 0.00 0.00 75 1013.2
20260906083056 81 0 0.0 1.0 0.00 0.00 0.00 74 1013.2
20260906081556 82 0 0.0 2.0 0.00 0.00 0.00 73 1013.1
20260906080054 82 0 0.0 2.0 0.00 0.00 0.00 73 1013.4
20260906074549 82 0 0.0 1.0 0.00 0.00 0.00 73 1013.6
20260906073057 82 171 0.0 4.0 0.00 0.00 0.00 73 1013.7
20260906071605 82 126 0.0 5.0 0.00 0.00 0.00 72 1013.9
20260906070054 82 135 0.0 1.0 0.00 0.00 0.00 72 1014.1
20260906064600 83 0 0.0 3.0 0.00 0.00 0.00 72 1014.2
20260906063101 83 0 0.0 4.0 0.00 0.00 0.00 72 1014.3
20260906061556 82 146 0.0 2.0 0.00 0.00 0.00 72 1014.1
20260906060109 82 0 0.0 0.0 0.00 0.00 0.00 72 1014.4
20260906054554 82 0 0.0 0.0 0.00 0.00 0.00 72 1014.4
20260906053058 82 0 0.0 1.0 0.00 0.00 0.00 71 1014.3
20260906051556 82 0 0.0 0.0 0.00 0.00 0.00 71 1014.3
20260906050114 82 0 0.0 1.0 0.00 0.00 0.00 70 1014.6
20260906044559 83 0 0.0 1.0 0.00 0.00 0.00 70 1014.6
20260906043107 83 0 0.0 1.0 0.00 0.00 0.00 69 1014.5
20260906041555 83 0 0.0 2.0 0.00 0.00 0.00 69 1014.3
20260906040053 84 155 0.0 3.0 0.00 0.00 0.00 68 1014.3
20260906034559 84 0 0.0 4.0 0.00 0.00 0.00 67 1014.3
20260906033058 85 0 0.0 2.0 0.00 0.00 0.00 65 1014.3
20260906031604 85 81 0.0 3.0 0.00 0.00 0.00 64 1014.2
20260906030132 86 0 0.0 6.0 0.00 0.00 0.00 63 1014.0
20260906024557 86 98 0.0 3.0 0.00 0.00 0.00 62 1013.6
20260906023058 87 35 0.0 4.0 0.00 0.00 0.00 60 1013.4
20260906021610 88 61 1.0 4.0 0.00 0.00 0.00 59 1012.9
20260906020100 88 0 0.0 5.0 0.00 0.00 0.00 58 1012.7
20260906014552 89 0 1.0 4.0 0.00 0.00 0.00 57 1012.4
20260906013100 90 143 1.0 6.0 0.00 0.00 0.00 56 1012.3
20260906011605 90 0 1.0 4.0 0.00 0.00 0.00 56 1012.1
20260906010100 91 154 0.0 8.0 0.00 0.00 0.00 55 1012.0
20260906004556 92 89 2.0 9.0 0.00 0.00 0.00 53 1012.0
20260906003108 93 324 1.0 6.0 0.00 0.00 0.00 52 1012.0
20260906001559 94 0 1.0 5.0 0.00 0.00 0.00 49 1011.8
20260906000057 95 126 0.0 3.0 0.00 0.00 0.00 45 1011.8
20260905234603 95 130 0.0 2.0 0.00 0.00 0.00 44 1011.6